Time,TemperatureF,DewpointF,PressureIn,WindDirection,WindDirectionDegrees,WindSpeedMPH,WindSpeedGustMPH,Humidity,HourlyPrecipIn,Conditions,Clouds,dailyrainin,SoftwareType,DateUTC
2013-08-30 00:01:00,58.3,54.4,30.10,NNW,341,0.0,0.0,87,0.00,,,0.00,VWS V14.01,2013-08-30 04:01:00,
2013-08-30 00:04:00,58.3,54.4,30.10,NNW,341,0.0,0.0,87,0.00,,,0.00,VWS V14.01,2013-08-30 04:04:00,
2013-08-30 00:09:00,58.1,54.3,30.10,NNW,341,0.0,0.0,87,0.00,,,0.00,VWS V14.01,2013-08-30 04:09:00,
2013-08-30 00:14:00,57.9,54.4,30.10,NNW,341,0.0,0.0,88,0.00,,,0.00,VWS V14.01,2013-08-30 04:14:00,
2013-08-30 00:19:00,57.9,54.4,30.10,NNW,341,0.0,0.0,88,0.00,,,0.00,VWS V14.01,2013-08-30 04:19:00,
2013-08-30 00:24:00,57.9,54.4,30.10,NNW,341,0.0,0.0,88,0.00,,,0.00,VWS V14.01,2013-08-30 04:24:00,
2013-08-30 00:29:00,57.9,54.4,30.10,NNW,341,0.0,0.0,88,0.00,,,0.00,VWS V14.01,2013-08-30 04:29:00,
2013-08-30 00:34:00,57.9,54.4,30.10,NNW,341,0.0,0.0,88,0.00,,,0.00,VWS V14.01,2013-08-30 04:34:00,
2013-08-30 00:39:00,57.7,54.2,30.10,NNW,341,0.0,0.0,88,0.00,,,0.00,VWS V14.01,2013-08-30 04:39:00,
2013-08-30 00:44:00,57.7,54.2,30.10,NNW,341,0.0,0.0,88,0.00,,,0.00,VWS V14.01,2013-08-30 04:44:00,
2013-08-30 00:49:00,57.7,54.2,30.10,NNW,341,0.0,0.0,88,0.00,,,0.00,VWS V14.01,2013-08-30 04:49:00,
2013-08-30 00:54:00,57.7,54.2,30.10,NNW,341,0.0,0.0,88,0.00,,,0.00,VWS V14.01,2013-08-30 04:54:00,
2013-08-30 00:59:00,57.6,54.3,30.10,NNW,341,0.0,0.0,89,0.00,,,0.00,VWS V14.01,2013-08-30 04:59:00,
2013-08-30 01:04:00,57.6,54.3,30.10,NNW,341,0.0,0.0,89,0.00,,,0.00,VWS V14.01,2013-08-30 05:04:00,
2013-08-30 01:09:00,57.6,54.3,30.10,NNW,341,0.0,0.0,89,0.00,,,0.00,VWS V14.01,2013-08-30 05:09:00,
2013-08-30 01:14:00,57.6,54.3,30.10,NNW,341,0.0,0.0,89,0.00,,,0.00,VWS V14.01,2013-08-30 05:14:00,
2013-08-30 01:19:00,57.6,54.3,30.10,NNW,341,0.0,0.0,89,0.00,,,0.00,VWS V14.01,2013-08-30 05:19:00,
2013-08-30 01:24:00,57.6,54.3,30.10,NNW,341,0.0,0.0,89,0.00,,,0.00,VWS V14.01,2013-08-30 05:24:00,
2013-08-30 01:29:00,57.6,54.3,30.10,NNW,341,0.0,0.0,89,0.00,,,0.00,VWS V14.01,2013-08-30 05:29:00,
2013-08-30 01:34:00,57.6,54.3,30.10,NNW,341,0.0,0.0,89,0.00,,,0.00,VWS V14.01,2013-08-30 05:34:00,
2013-08-30 01:39:00,57.6,54.3,30.10,NNW,341,0.0,0.0,89,0.00,,,0.00,VWS V14.01,2013-08-30 05:39:00,
2013-08-30 01:44:00,57.6,54.3,30.10,NNW,341,0.0,0.0,89,0.00,,,0.00,VWS V14.01,2013-08-30 05:44:00,
2013-08-30 01:49:00,58.1,55.2,30.10,NNW,341,0.0,0.0,90,0.00,,,0.00,VWS V14.01,2013-08-30 05:49:00,
2013-08-30 01:54:00,58.1,55.2,30.10,NNW,341,0.0,0.0,90,0.00,,,0.00,VWS V14.01,2013-08-30 05:54:00,
2013-08-30 01:59:00,58.1,55.2,30.10,NNW,341,0.0,0.0,90,0.00,,,0.00,VWS V14.01,2013-08-30 05:59:00,
2013-08-30 02:04:00,58.5,55.5,30.10,NNW,341,0.0,0.0,90,0.00,,,0.00,VWS V14.01,2013-08-30 06:04:00,
2013-08-30 02:09:00,58.6,55.7,30.10,NNW,341,0.0,0.0,90,0.00,,,0.00,VWS V14.01,2013-08-30 06:09:00,
2013-08-30 02:14:00,58.6,55.7,30.10,NNW,341,0.0,0.0,90,0.00,,,0.00,VWS V14.01,2013-08-30 06:14:00,
2013-08-30 02:19:00,58.6,55.7,30.10,NNW,341,0.0,0.0,90,0.00,,,0.00,VWS V14.01,2013-08-30 06:19:00,
2013-08-30 02:24:00,58.6,55.7,30.10,NNW,341,0.0,0.0,90,0.00,,,0.00,VWS V14.01,2013-08-30 06:24:00,
2013-08-30 02:29:00,58.6,55.7,30.10,NNW,341,0.0,0.0,90,0.00,,,0.00,VWS V14.01,2013-08-30 06:29:00,
2013-08-30 02:35:00,59.2,56.2,30.07,NNW,341,0.0,0.0,90,0.00,,,0.00,VWS V14.01,2013-08-30 06:35:00,
2013-08-30 02:40:00,59.2,56.2,30.07,NNW,341,0.0,0.0,90,0.00,,,0.00,VWS V14.01,2013-08-30 06:40:00,
2013-08-30 02:45:00,59.2,56.2,30.07,NNW,341,0.0,0.0,90,0.00,,,0.00,VWS V14.01,2013-08-30 06:45:00,
2013-08-30 02:50:00,59.2,56.2,30.07,NNW,341,0.0,0.0,90,0.00,,,0.00,VWS V14.01,2013-08-30 06:50:00,
2013-08-30 02:55:00,59.2,56.2,30.07,NNW,341,0.0,0.0,90,0.00,,,0.00,VWS V14.01,2013-08-30 06:55:00,
2013-08-30 03:00:00,59.7,57.1,30.07,NNW,341,0.0,0.0,91,0.00,,,0.00,VWS V14.01,2013-08-30 07:00:00,
2013-08-30 03:05:00,59.7,57.1,30.07,NNW,341,0.0,0.0,91,0.00,,,0.00,VWS V14.01,2013-08-30 07:05:00,
2013-08-30 03:10:00,59.7,57.1,30.07,NNW,341,0.0,0.0,91,0.00,,,0.00,VWS V14.01,2013-08-30 07:10:00,
2013-08-30 03:15:00,59.7,57.1,30.07,NNW,341,0.0,0.0,91,0.00,,,0.00,VWS V14.01,2013-08-30 07:15:00,
2013-08-30 03:20:00,59.7,57.1,30.07,NNW,341,0.0,0.0,91,0.00,,,0.00,VWS V14.01,2013-08-30 07:20:00,
2013-08-30 03:25:00,59.7,57.1,30.07,NNW,341,0.0,0.0,91,0.00,,,0.00,VWS V14.01,2013-08-30 07:25:00,
2013-08-30 03:30:00,59.7,57.1,30.07,NNW,341,0.0,0.0,91,0.00,,,0.00,VWS V14.01,2013-08-30 07:30:00,
2013-08-30 03:35:00,59.7,57.1,30.07,NNW,341,0.0,0.0,91,0.00,,,0.00,VWS V14.01,2013-08-30 07:35:00,
2013-08-30 03:40:00,59.7,57.1,30.07,NNW,341,0.0,0.0,91,0.00,,,0.00,VWS V14.01,2013-08-30 07:40:00,
2013-08-30 03:45:00,60.1,57.5,30.07,NNW,341,0.0,0.0,91,0.00,,,0.00,VWS V14.01,2013-08-30 07:45:00,
2013-08-30 03:50:00,60.1,57.5,30.07,NNW,341,0.0,0.0,91,0.00,,,0.00,VWS V14.01,2013-08-30 07:50:00,
2013-08-30 03:55:00,60.1,57.5,30.07,NNW,341,0.0,0.0,91,0.00,,,0.00,VWS V14.01,2013-08-30 07:55:00,
2013-08-30 04:00:00,60.1,57.5,30.07,NNW,341,0.0,0.0,91,0.00,,,0.00,VWS V14.01,2013-08-30 08:00:00,
2013-08-30 04:05:00,60.1,57.5,30.07,NNW,341,0.0,0.0,91,0.00,,,0.00,VWS V14.01,2013-08-30 08:05:00,
2013-08-30 04:10:00,60.3,57.6,30.07,NNW,341,0.0,0.0,91,0.00,,,0.00,VWS V14.01,2013-08-30 08:10:00,
2013-08-30 04:15:00,60.3,57.6,30.07,NNW,341,0.0,0.0,91,0.00,,,0.00,VWS V14.01,2013-08-30 08:15:00,
2013-08-30 04:20:00,60.3,57.6,30.07,NNW,341,0.0,0.0,91,0.00,,,0.00,VWS V14.01,2013-08-30 08:20:00,
2013-08-30 04:25:00,60.3,57.6,30.07,NNW,341,0.0,0.0,91,0.00,,,0.00,VWS V14.01,2013-08-30 08:25:00,
2013-08-30 04:30:00,60.3,57.6,30.07,NNW,341,0.0,0.0,91,0.00,,,0.00,VWS V14.01,2013-08-30 08:30:00,
2013-08-30 04:35:00,60.3,57.6,30.07,NNW,341,0.0,0.0,91,0.00,,,0.00,VWS V14.01,2013-08-30 08:35:00,
2013-08-30 04:40:00,60.3,57.6,30.07,NNW,341,0.0,0.0,91,0.00,,,0.00,VWS V14.01,2013-08-30 08:40:00,
2013-08-30 04:45:00,60.3,57.6,30.07,NNW,341,0.0,0.0,91,0.00,,,0.00,VWS V14.01,2013-08-30 08:45:00,
2013-08-30 04:50:00,60.4,58.1,30.07,NNW,341,0.0,0.0,92,0.00,,,0.00,VWS V14.01,2013-08-30 08:50:00,
2013-08-30 04:55:00,60.4,58.1,30.07,SSE,157,0.0,0.0,92,0.00,,,0.00,VWS V14.01,2013-08-30 08:55:00,
2013-08-30 05:00:00,60.1,57.8,30.07,South,170,0.0,0.0,92,0.00,,,0.00,VWS V14.01,2013-08-30 09:00:00,
2013-08-30 05:05:00,60.1,57.8,30.04,South,170,0.0,0.0,92,0.00,,,0.00,VWS V14.01,2013-08-30 09:05:00,
2013-08-30 05:10:00,60.1,57.8,30.04,South,170,0.0,0.0,92,0.00,,,0.00,VWS V14.01,2013-08-30 09:10:00,
2013-08-30 05:15:00,60.1,57.8,30.04,South,170,0.0,0.0,92,0.00,,,0.00,VWS V14.01,2013-08-30 09:15:00,
2013-08-30 05:20:00,60.1,57.8,30.07,South,170,0.0,0.0,92,0.00,,,0.00,VWS V14.01,2013-08-30 09:20:00,
2013-08-30 05:25:00,60.1,57.8,30.07,South,171,0.0,0.0,92,0.00,,,0.00,VWS V14.01,2013-08-30 09:25:00,
2013-08-30 05:30:00,60.1,57.8,30.07,South,169,0.0,0.0,92,0.00,,,0.00,VWS V14.01,2013-08-30 09:30:00,
2013-08-30 05:35:00,60.1,57.8,30.07,South,169,0.0,0.0,92,0.00,,,0.00,VWS V14.01,2013-08-30 09:35:00,
2013-08-30 05:40:00,60.1,57.8,30.07,South,169,0.0,0.0,92,0.00,,,0.00,VWS V14.01,2013-08-30 09:40:00,
2013-08-30 05:45:00,60.1,57.8,30.07,South,169,0.0,0.0,92,0.00,,,0.00,VWS V14.01,2013-08-30 09:45:00,
2013-08-30 05:50:00,60.1,57.8,30.07,SSE,164,0.0,0.0,92,0.00,,,0.00,VWS V14.01,2013-08-30 09:50:00,
2013-08-30 05:55:00,60.3,57.9,30.07,SSE,165,0.0,0.0,92,0.00,,,0.00,VWS V14.01,2013-08-30 09:55:00,
2013-08-30 06:00:00,60.3,57.9,30.07,SSE,165,0.0,0.0,92,0.00,,,0.00,VWS V14.01,2013-08-30 10:00:00,
2013-08-30 06:06:00,60.3,57.9,30.07,SSE,165,0.0,0.0,92,0.00,,,0.00,VWS V14.01,2013-08-30 10:06:00,
2013-08-30 06:11:00,60.3,57.9,30.07,SSE,165,0.0,0.0,92,0.00,,,0.00,VWS V14.01,2013-08-30 10:11:00,
2013-08-30 06:16:00,60.3,57.9,30.07,SSE,165,0.0,0.0,92,0.00,,,0.00,VWS V14.01,2013-08-30 10:16:00,
2013-08-30 06:21:00,60.3,57.9,30.07,SSE,165,0.0,0.0,92,0.00,,,0.00,VWS V14.01,2013-08-30 10:21:00,
2013-08-30 06:26:00,60.3,57.9,30.07,SSE,165,0.0,0.0,92,0.00,,,0.00,VWS V14.01,2013-08-30 10:26:00,
2013-08-30 06:31:00,60.4,58.1,30.07,SSE,168,0.0,0.0,92,0.00,,,0.00,VWS V14.01,2013-08-30 10:31:00,
2013-08-30 06:36:00,60.4,58.1,30.07,SSE,168,0.0,0.0,92,0.00,,,0.00,VWS V14.01,2013-08-30 10:36:00,
2013-08-30 06:41:00,60.4,58.1,30.07,SSE,163,0.0,0.0,92,0.00,,,0.00,VWS V14.01,2013-08-30 10:41:00,
2013-08-30 06:46:00,60.4,58.1,30.04,SSE,163,0.0,0.0,92,0.00,,,0.00,VWS V14.01,2013-08-30 10:46:00,
2013-08-30 06:51:00,60.6,58.3,30.04,SSE,163,0.0,0.0,92,0.00,,,0.00,VWS V14.01,2013-08-30 10:51:00,
2013-08-30 06:56:00,60.6,58.3,30.04,SSE,160,0.0,0.0,92,0.00,,,0.00,VWS V14.01,2013-08-30 10:56:00,
2013-08-30 07:01:00,60.6,58.3,30.07,SSE,166,0.0,0.0,92,0.00,,,0.00,VWS V14.01,2013-08-30 11:01:00,
2013-08-30 07:06:00,60.6,58.3,30.07,South,171,0.0,0.0,92,0.00,,,0.00,VWS V14.01,2013-08-30 11:06:00,
2013-08-30 07:11:00,60.6,58.3,30.07,SSE,165,0.0,0.0,92,0.00,,,0.00,VWS V14.01,2013-08-30 11:11:00,
2013-08-30 07:16:00,61.0,58.6,30.07,South,176,0.0,0.0,92,0.00,,,0.00,VWS V14.01,2013-08-30 11:16:00,
2013-08-30 07:21:00,61.0,58.6,30.07,South,177,0.0,0.0,92,0.00,,,0.00,VWS V14.01,2013-08-30 11:21:00,
2013-08-30 07:26:00,61.0,58.6,30.07,South,177,0.0,0.0,92,0.00,,,0.00,VWS V14.01,2013-08-30 11:26:00,
2013-08-30 07:31:00,61.0,58.6,30.07,South,176,0.0,0.0,92,0.00,,,0.00,VWS V14.01,2013-08-30 11:31:00,
2013-08-30 07:36:00,61.0,58.6,30.07,South,176,0.0,0.0,92,0.00,,,0.00,VWS V14.01,2013-08-30 11:36:00,
2013-08-30 07:41:00,61.3,59.0,30.07,South,177,0.0,0.0,92,0.00,,,0.00,VWS V14.01,2013-08-30 11:41:00,
2013-08-30 07:46:00,61.3,59.0,30.07,South,177,0.0,0.0,92,0.00,,,0.00,VWS V14.01,2013-08-30 11:46:00,
2013-08-30 07:51:00,61.5,59.2,30.07,South,177,0.0,0.0,92,0.00,,,0.00,VWS V14.01,2013-08-30 11:51:00,
2013-08-30 07:56:00,61.5,59.2,30.07,South,177,0.0,0.0,92,0.00,,,0.00,VWS V14.01,2013-08-30 11:56:00,
2013-08-30 08:01:00,61.7,59.4,30.07,South,177,0.0,0.0,92,0.00,,,0.00,VWS V14.01,2013-08-30 12:01:00,
2013-08-30 08:06:00,61.7,59.4,30.07,South,177,0.0,0.0,92,0.00,,,0.00,VWS V14.01,2013-08-30 12:06:00,
2013-08-30 08:11:00,61.9,59.5,30.07,South,177,0.0,0.0,92,0.00,,,0.00,VWS V14.01,2013-08-30 12:11:00,
2013-08-30 08:16:00,61.9,59.5,30.07,South,177,0.0,0.0,92,0.00,,,0.00,VWS V14.01,2013-08-30 12:16:00,
2013-08-30 08:21:00,61.9,59.5,30.07,South,177,0.0,0.0,92,0.00,,,0.00,VWS V14.01,2013-08-30 12:21:00,
2013-08-30 08:26:00,62.1,59.7,30.07,South,169,0.0,0.0,92,0.00,,,0.00,VWS V14.01,2013-08-30 12:26:00,
2013-08-30 08:31:00,62.1,59.7,30.07,South,169,0.0,0.0,92,0.00,,,0.00,VWS V14.01,2013-08-30 12:31:00,
2013-08-30 08:36:00,62.1,59.7,30.07,South,169,0.0,0.0,92,0.00,,,0.00,VWS V14.01,2013-08-30 12:36:00,
2013-08-30 08:41:00,61.9,59.5,30.07,South,169,0.0,0.0,92,0.00,,,0.00,VWS V14.01,2013-08-30 12:41:00,
2013-08-30 08:46:00,61.9,59.5,30.07,South,169,0.0,0.0,92,0.00,,,0.00,VWS V14.01,2013-08-30 12:46:00,
2013-08-30 08:51:00,61.9,59.5,30.07,South,169,0.0,0.0,92,0.00,,,0.00,VWS V14.01,2013-08-30 12:51:00,
2013-08-30 08:56:00,62.6,60.2,30.07,SSE,164,0.0,0.0,92,0.00,,,0.00,VWS V14.01,2013-08-30 12:56:00,
2013-08-30 09:01:00,63.0,60.6,30.04,ESE,111,0.0,0.0,92,0.00,,,0.00,VWS V14.01,2013-08-30 13:01:00,
2013-08-30 09:06:00,63.0,60.6,30.04,East,99,0.0,0.0,92,0.00,,,0.00,VWS V14.01,2013-08-30 13:06:00,
2013-08-30 09:11:00,63.3,61.0,30.04,East,99,0.0,0.0,92,0.00,,,0.00,VWS V14.01,2013-08-30 13:11:00,
2013-08-30 09:16:00,63.3,61.0,30.04,East,99,0.0,0.0,92,0.00,,,0.00,VWS V14.01,2013-08-30 13:16:00,
2013-08-30 09:21:00,63.3,61.0,30.04,South,172,3.6,3.6,92,0.00,,,0.00,VWS V14.01,2013-08-30 13:21:00,
2013-08-30 09:26:00,63.3,61.0,30.04,SSE,167,0.0,3.6,92,0.00,,,0.00,VWS V14.01,2013-08-30 13:26:00,
2013-08-30 09:31:00,63.3,61.0,30.04,SSE,160,0.0,0.0,92,0.00,,,0.00,VWS V14.01,2013-08-30 13:31:00,
2013-08-30 09:36:00,65.8,63.1,30.04,SSE,150,2.2,4.0,91,0.00,,,0.00,VWS V14.01,2013-08-30 13:36:00,
2013-08-30 09:41:00,66.4,63.7,30.04,South,189,3.1,4.0,91,0.00,,FEW004,0.00,VWS V14.01,2013-08-30 13:41:00,
2013-08-30 09:46:00,66.7,64.0,30.04,SSE,164,3.6,5.4,91,0.00,,FEW004,0.00,VWS V14.01,2013-08-30 13:46:00,
2013-08-30 09:52:00,66.7,64.0,30.04,SW,218,0.0,0.0,91,0.00,,FEW004,0.00,VWS V14.01,2013-08-30 13:52:00,
2013-08-30 09:57:00,66.7,64.0,30.04,South,177,4.5,4.5,91,0.00,,FEW004,0.00,VWS V14.01,2013-08-30 13:57:00,
2013-08-30 10:02:00,67.8,65.1,30.04,South,177,3.6,3.6,91,0.00,,FEW004,0.00,VWS V14.01,2013-08-30 14:02:00,
2013-08-30 10:07:00,67.8,65.1,30.04,SSE,150,2.7,3.6,91,0.00,,FEW004,0.00,VWS V14.01,2013-08-30 14:07:00,
2013-08-30 10:12:00,67.8,65.1,30.04,SSE,165,0.0,3.6,91,0.00,,FEW004,0.00,VWS V14.01,2013-08-30 14:12:00,
2013-08-30 10:17:00,68.9,65.8,30.04,South,173,0.0,3.6,90,0.00,,FEW004,0.00,VWS V14.01,2013-08-30 14:17:00,
2013-08-30 10:22:00,69.3,66.2,30.04,South,172,3.1,3.1,90,0.00,,FEW004,0.00,VWS V14.01,2013-08-30 14:22:00,
2013-08-30 10:27:00,69.3,66.2,30.04,South,170,0.0,4.0,90,0.00,,FEW004,0.00,VWS V14.01,2013-08-30 14:27:00,
2013-08-30 10:32:00,69.3,66.2,30.04,South,185,3.6,4.9,90,0.00,,FEW004,0.00,VWS V14.01,2013-08-30 14:32:00,
2013-08-30 10:37:00,69.3,66.2,30.04,SSE,166,3.6,4.9,90,0.00,,FEW004,0.00,VWS V14.01,2013-08-30 14:37:00,
2013-08-30 10:42:00,69.3,66.2,30.04,SSE,159,3.1,3.1,90,0.00,,CLR,0.00,VWS V14.01,2013-08-30 14:42:00,
2013-08-30 10:47:00,73.0,69.3,30.01,SSE,164,3.6,3.6,88,0.00,,CLR,0.00,VWS V14.01,2013-08-30 14:47:00,
2013-08-30 10:52:00,73.0,69.3,30.01,SSE,158,3.6,3.6,88,0.00,,CLR,0.00,VWS V14.01,2013-08-30 14:52:00,
2013-08-30 10:57:00,73.9,69.5,30.04,SSE,165,5.8,5.8,86,0.00,,CLR,0.00,VWS V14.01,2013-08-30 14:57:00,
2013-08-30 11:02:00,73.9,69.5,30.04,South,170,4.0,4.0,86,0.00,,CLR,0.00,VWS V14.01,2013-08-30 15:02:00,
2013-08-30 11:07:00,73.9,69.5,30.04,SSE,167,0.0,4.0,86,0.00,,CLR,0.00,VWS V14.01,2013-08-30 15:07:00,
2013-08-30 11:12:00,75.9,69.7,30.04,SSE,165,0.0,4.0,81,0.00,,CLR,0.00,VWS V14.01,2013-08-30 15:12:00,
2013-08-30 11:17:00,76.5,69.8,30.04,South,189,0.0,4.0,80,0.00,,CLR,0.00,VWS V14.01,2013-08-30 15:17:00,
2013-08-30 11:22:00,76.5,69.8,30.04,SSE,166,3.1,5.4,80,0.00,,CLR,0.00,VWS V14.01,2013-08-30 15:22:00,
2013-08-30 11:27:00,76.8,65.5,30.04,South,170,4.0,5.4,68,0.00,,CLR,0.00,VWS V14.01,2013-08-30 15:27:00,
2013-08-30 11:32:00,77.0,63.5,30.01,South,179,4.0,4.0,63,0.00,,CLR,0.00,VWS V14.01,2013-08-30 15:32:00,
2013-08-30 11:37:00,77.2,63.2,30.01,SSE,155,0.0,4.0,62,0.00,,CLR,0.00,VWS V14.01,2013-08-30 15:37:00,
2013-08-30 11:42:00,77.2,63.2,30.01,WNW,301,0.0,3.6,62,0.00,,CLR,0.00,VWS V14.01,2013-08-30 15:42:00,
2013-08-30 11:47:00,77.9,61.5,30.01,South,171,0.0,4.9,57,0.00,,CLR,0.00,VWS V14.01,2013-08-30 15:47:00,
2013-08-30 11:52:00,77.9,61.5,30.01,WSW,246,0.0,3.1,57,0.00,,CLR,0.00,VWS V14.01,2013-08-30 15:52:00,
2013-08-30 11:57:00,78.8,59.2,30.01,South,184,2.7,3.1,51,0.00,,CLR,0.00,VWS V14.01,2013-08-30 15:57:00,
2013-08-30 12:02:00,79.3,58.5,30.01,South,172,3.6,4.9,49,0.00,,CLR,0.00,VWS V14.01,2013-08-30 16:02:00,
2013-08-30 12:07:00,79.3,58.5,30.01,SSW,199,4.0,5.4,49,0.00,,CLR,0.00,VWS V14.01,2013-08-30 16:07:00,
2013-08-30 12:12:00,80.8,59.3,30.01,South,169,0.0,0.0,48,0.00,,CLR,0.00,VWS V14.01,2013-08-30 16:12:00,
2013-08-30 12:17:00,80.8,59.3,30.01,SE,143,4.5,4.5,48,0.00,,CLR,0.00,VWS V14.01,2013-08-30 16:17:00,
2013-08-30 12:22:00,81.3,58.0,30.01,SSE,165,0.0,2.2,45,0.00,,CLR,0.00,VWS V14.01,2013-08-30 16:22:00,
2013-08-30 12:27:00,81.3,58.0,30.01,South,176,4.0,6.3,45,0.00,,CLR,0.00,VWS V14.01,2013-08-30 16:27:00,
2013-08-30 12:32:00,79.7,53.9,30.01,SSW,208,0.0,3.6,41,0.00,,CLR,0.00,VWS V14.01,2013-08-30 16:32:00,
2013-08-30 12:37:00,79.5,53.8,30.01,South,170,2.7,3.6,41,0.00,,CLR,0.00,VWS V14.01,2013-08-30 16:37:00,
2013-08-30 12:42:00,79.9,54.8,30.01,South,172,3.6,3.6,42,0.00,,BKN120,0.00,VWS V14.01,2013-08-30 16:42:00,
2013-08-30 12:47:00,79.9,54.8,30.01,SW,229,6.3,6.3,42,0.00,,BKN120,0.00,VWS V14.01,2013-08-30 16:47:00,
2013-08-30 12:52:00,79.9,54.8,30.01,South,169,2.2,3.6,42,0.00,,BKN120,0.00,VWS V14.01,2013-08-30 16:52:00,
2013-08-30 12:57:00,79.9,54.8,29.98,SSE,156,0.0,4.0,42,0.00,,BKN120,0.00,VWS V14.01,2013-08-30 16:57:00,
2013-08-30 13:03:00,79.9,54.8,29.98,SSE,159,4.0,6.3,42,0.00,,BKN120,0.00,VWS V14.01,2013-08-30 17:03:00,
2013-08-30 13:08:00,80.4,52.5,29.98,SW,236,3.6,6.3,38,0.00,,BKN120,0.00,VWS V14.01,2013-08-30 17:08:00,
2013-08-30 13:13:00,79.9,52.0,29.98,SW,220,3.1,4.5,38,0.00,,BKN120,0.00,VWS V14.01,2013-08-30 17:13:00,
2013-08-30 13:18:00,79.7,52.6,29.98,SSE,164,6.3,6.3,39,0.00,,BKN120,0.00,VWS V14.01,2013-08-30 17:18:00,
2013-08-30 13:23:00,79.7,52.6,29.98,SW,216,0.0,0.0,39,0.00,,BKN120,0.00,VWS V14.01,2013-08-30 17:23:00,
2013-08-30 13:28:00,80.4,52.5,29.98,South,173,4.0,4.0,38,0.00,,BKN120,0.00,VWS V14.01,2013-08-30 17:28:00,
2013-08-30 13:33:00,80.6,52.7,29.98,South,185,0.0,5.8,38,0.00,,BKN120,0.00,VWS V14.01,2013-08-30 17:33:00,
2013-08-30 13:38:00,80.6,52.7,29.98,South,177,4.0,5.8,38,0.00,,BKN120,0.00,VWS V14.01,2013-08-30 17:38:00,
2013-08-30 13:43:00,81.0,52.3,29.98,SW,219,5.4,6.3,37,0.00,,SCT060,0.00,VWS V14.01,2013-08-30 17:43:00,
2013-08-30 13:48:00,81.0,52.3,29.98,SW,216,0.0,6.3,37,0.00,,SCT060,0.00,VWS V14.01,2013-08-30 17:48:00,
2013-08-30 13:53:00,81.0,52.3,29.98,SSE,164,7.6,8.7,37,0.00,,SCT060,0.00,VWS V14.01,2013-08-30 17:53:00,
2013-08-30 13:58:00,81.0,52.3,29.98,South,184,0.0,8.7,37,0.00,,SCT060,0.00,VWS V14.01,2013-08-30 17:58:00,
2013-08-30 14:03:00,81.0,52.3,29.98,SSE,168,4.0,5.8,37,0.00,,SCT060,0.00,VWS V14.01,2013-08-30 18:03:00,
2013-08-30 14:08:00,81.1,50.1,29.98,SW,222,0.0,5.8,34,0.00,,SCT060,0.00,VWS V14.01,2013-08-30 18:08:00,
2013-08-30 14:13:00,81.1,50.1,29.98,SW,225,2.2,2.2,34,0.00,,SCT060,0.00,VWS V14.01,2013-08-30 18:13:00,
2013-08-30 14:18:00,81.1,50.1,29.98,SSE,164,3.6,5.8,34,0.00,,SCT060,0.00,VWS V14.01,2013-08-30 18:18:00,
2013-08-30 14:23:00,81.1,50.1,29.98,South,177,4.9,4.9,34,0.00,,SCT060,0.00,VWS V14.01,2013-08-30 18:23:00,
2013-08-30 14:28:00,82.2,51.1,29.96,SSE,163,5.8,5.8,34,0.00,,SCT060,0.00,VWS V14.01,2013-08-30 18:28:00,
2013-08-30 14:33:00,82.2,51.1,29.96,SSW,210,3.1,4.0,34,0.00,,SCT060,0.00,VWS V14.01,2013-08-30 18:33:00,
2013-08-30 14:38:00,81.3,50.3,29.96,SSE,155,3.6,4.0,34,0.00,,SCT060,0.00,VWS V14.01,2013-08-30 18:38:00,
2013-08-30 14:43:00,81.3,50.3,29.96,SSE,164,0.0,3.1,34,0.00,,FEW040,0.00,VWS V14.01,2013-08-30 18:43:00,
2013-08-30 14:48:00,81.3,50.3,29.96,South,181,0.0,3.1,34,0.00,,FEW040,0.00,VWS V14.01,2013-08-30 18:48:00,
2013-08-30 14:53:00,81.0,50.0,29.96,South,182,2.7,2.7,34,0.00,,FEW040,0.00,VWS V14.01,2013-08-30 18:53:00,
2013-08-30 14:58:00,81.0,50.0,29.96,SSE,168,2.7,3.1,34,0.00,,FEW040,0.00,VWS V14.01,2013-08-30 18:58:00,
2013-08-30 15:03:00,80.4,50.3,29.96,SE,142,3.6,3.6,35,0.00,,FEW040,0.00,VWS V14.01,2013-08-30 19:03:00,
2013-08-30 15:08:00,80.2,50.1,29.96,SSE,158,7.6,7.6,35,0.00,,FEW040,0.00,VWS V14.01,2013-08-30 19:08:00,
2013-08-30 15:13:00,80.2,50.1,29.96,South,184,4.0,8.7,35,0.00,,FEW040,0.00,VWS V14.01,2013-08-30 19:13:00,
2013-08-30 15:18:00,81.3,50.3,29.96,SSW,211,0.0,8.7,34,0.00,,FEW040,0.00,VWS V14.01,2013-08-30 19:18:00,
2013-08-30 15:23:00,81.3,50.3,29.96,SSW,194,3.1,3.1,34,0.00,,FEW040,0.00,VWS V14.01,2013-08-30 19:23:00,
2013-08-30 15:28:00,81.1,49.3,29.96,South,169,2.7,3.6,33,0.00,,FEW040,0.00,VWS V14.01,2013-08-30 19:28:00,
2013-08-30 15:33:00,81.1,49.3,29.96,South,171,0.0,4.9,33,0.00,,FEW040,0.00,VWS V14.01,2013-08-30 19:33:00,
2013-08-30 15:38:00,79.5,48.7,29.96,South,172,2.7,5.4,34,0.00,,FEW040,0.00,VWS V14.01,2013-08-30 19:38:00,
2013-08-30 15:44:00,79.2,49.2,29.96,SSE,160,5.4,5.4,35,0.00,,FEW048,0.00,VWS V14.01,2013-08-30 19:44:00,
2013-08-30 15:49:00,79.2,49.2,29.96,South,173,3.1,5.4,35,0.00,,FEW048,0.00,VWS V14.01,2013-08-30 19:49:00,
2013-08-30 15:54:00,79.5,51.0,29.96,SSW,198,2.7,4.0,37,0.00,,FEW048,0.00,VWS V14.01,2013-08-30 19:54:00,
2013-08-30 15:59:00,79.5,51.0,29.96,South,176,3.6,4.0,37,0.00,,FEW048,0.00,VWS V14.01,2013-08-30 19:59:00,
2013-08-30 16:04:00,80.2,50.1,29.96,SSE,154,0.0,2.2,35,0.00,,FEW048,0.00,VWS V14.01,2013-08-30 20:04:00,
2013-08-30 16:09:00,80.2,50.1,29.96,SSW,200,2.2,2.2,35,0.00,,FEW048,0.00,VWS V14.01,2013-08-30 20:09:00,
2013-08-30 16:14:00,80.2,50.1,29.96,SSW,213,0.0,4.0,35,0.00,,FEW048,0.00,VWS V14.01,2013-08-30 20:14:00,
2013-08-30 16:19:00,80.2,50.1,29.96,SSE,166,2.7,4.0,35,0.00,,FEW048,0.00,VWS V14.01,2013-08-30 20:19:00,
2013-08-30 16:24:00,80.2,50.9,29.96,SSE,166,0.0,0.0,36,0.00,,FEW048,0.00,VWS V14.01,2013-08-30 20:24:00,
2013-08-30 16:29:00,80.2,50.9,29.93,SSE,150,4.0,4.0,36,0.00,,FEW048,0.00,VWS V14.01,2013-08-30 20:29:00,
2013-08-30 16:34:00,79.7,50.4,29.93,South,170,2.7,4.0,36,0.00,,FEW048,0.00,VWS V14.01,2013-08-30 20:34:00,
2013-08-30 16:39:00,79.7,51.2,29.93,South,170,0.0,4.0,37,0.00,,FEW048,0.00,VWS V14.01,2013-08-30 20:39:00,
2013-08-30 16:44:00,79.7,51.2,29.93,South,175,2.7,2.7,37,0.00,,BKN060,0.00,VWS V14.01,2013-08-30 20:44:00,
2013-08-30 16:49:00,79.9,51.3,29.93,SSE,168,0.0,3.6,37,0.00,,BKN060,0.00,VWS V14.01,2013-08-30 20:49:00,
2013-08-30 16:54:00,79.9,51.3,29.93,SSE,168,3.1,3.1,37,0.00,,BKN060,0.00,VWS V14.01,2013-08-30 20:54:00,
2013-08-30 16:59:00,79.9,51.3,29.93,South,175,2.7,4.0,37,0.00,,BKN060,0.00,VWS V14.01,2013-08-30 20:59:00,
2013-08-30 17:04:00,79.0,51.2,29.93,South,178,0.0,0.0,38,0.00,,BKN060,0.00,VWS V14.01,2013-08-30 21:04:00,
2013-08-30 17:09:00,78.8,51.8,29.93,SSE,158,0.0,0.0,39,0.00,,BKN060,0.00,VWS V14.01,2013-08-30 21:09:00,
2013-08-30 17:14:00,78.8,51.8,29.93,SSE,160,0.0,3.6,39,0.00,,BKN060,0.00,VWS V14.01,2013-08-30 21:14:00,
2013-08-30 17:19:00,78.8,51.8,29.93,SSW,210,2.2,3.6,39,0.00,,BKN060,0.00,VWS V14.01,2013-08-30 21:19:00,
2013-08-30 17:24:00,78.8,51.8,29.93,South,175,0.0,0.0,39,0.00,,BKN060,0.00,VWS V14.01,2013-08-30 21:24:00,
2013-08-30 17:29:00,77.2,52.3,29.93,SSW,192,0.0,0.0,42,0.00,,BKN060,0.00,VWS V14.01,2013-08-30 21:29:00,
2013-08-30 17:34:00,76.6,52.5,29.93,South,169,0.0,0.0,43,0.00,,BKN060,0.00,VWS V14.01,2013-08-30 21:34:00,
2013-08-30 17:39:00,76.6,52.5,29.93,South,169,0.0,0.0,43,0.00,,BKN060,0.00,VWS V14.01,2013-08-30 21:39:00,
2013-08-30 17:44:00,76.3,52.2,29.93,South,169,0.0,0.0,43,0.00,,CLR,0.00,VWS V14.01,2013-08-30 21:44:00,
2013-08-30 17:49:00,75.9,52.5,29.93,South,169,0.0,0.0,44,0.00,,CLR,0.00,VWS V14.01,2013-08-30 21:49:00,
2013-08-30 17:54:00,75.7,52.3,29.93,South,169,0.0,0.0,44,0.00,,CLR,0.00,VWS V14.01,2013-08-30 21:54:00,
2013-08-30 17:59:00,75.6,52.8,29.93,South,169,0.0,0.0,45,0.00,,CLR,0.00,VWS V14.01,2013-08-30 21:59:00,
2013-08-30 18:04:00,75.6,52.8,29.93,South,169,0.0,0.0,45,0.00,,CLR,0.00,VWS V14.01,2013-08-30 22:04:00,
2013-08-30 18:10:00,75.4,53.2,29.93,South,169,0.0,0.0,46,0.00,,CLR,0.00,VWS V14.01,2013-08-30 22:10:00,
2013-08-30 18:15:00,75.4,53.2,29.93,South,169,0.0,0.0,46,0.00,,CLR,0.00,VWS V14.01,2013-08-30 22:15:00,
2013-08-30 18:20:00,75.2,53.6,29.93,South,169,0.0,0.0,47,0.00,,CLR,0.00,VWS V14.01,2013-08-30 22:20:00,
2013-08-30 18:25:00,75.2,53.6,29.93,South,169,0.0,0.0,47,0.00,,CLR,0.00,VWS V14.01,2013-08-30 22:25:00,
2013-08-30 18:30:00,75.2,53.6,29.93,South,169,0.0,0.0,47,0.00,,CLR,0.00,VWS V14.01,2013-08-30 22:30:00,
2013-08-30 18:35:00,74.1,54.3,29.93,South,169,0.0,0.0,50,0.00,,CLR,0.00,VWS V14.01,2013-08-30 22:35:00,
2013-08-30 18:40:00,74.1,54.3,29.93,South,169,0.0,0.0,50,0.00,,CLR,0.00,VWS V14.01,2013-08-30 22:40:00,
2013-08-30 18:45:00,73.6,55.4,29.93,South,169,0.0,0.0,53,0.00,,CLR,0.00,VWS V14.01,2013-08-30 22:45:00,
2013-08-30 18:50:00,73.2,55.6,29.93,South,169,0.0,0.0,54,0.00,,CLR,0.00,VWS V14.01,2013-08-30 22:50:00,
2013-08-30 18:55:00,73.2,55.6,29.93,South,169,0.0,0.0,54,0.00,,CLR,0.00,VWS V14.01,2013-08-30 22:55:00,
2013-08-30 19:00:00,72.7,56.1,29.93,South,169,0.0,0.0,56,0.00,,CLR,0.00,VWS V14.01,2013-08-30 23:00:00,
2013-08-30 19:05:00,72.5,56.4,29.93,South,169,0.0,0.0,57,0.00,,CLR,0.00,VWS V14.01,2013-08-30 23:05:00,
2013-08-30 19:10:00,72.1,56.6,29.93,South,169,0.0,0.0,58,0.00,,CLR,0.00,VWS V14.01,2013-08-30 23:10:00,
2013-08-30 19:15:00,72.1,56.6,29.93,South,169,0.0,0.0,58,0.00,,CLR,0.00,VWS V14.01,2013-08-30 23:15:00,
2013-08-30 19:20:00,71.6,57.0,29.93,South,169,0.0,0.0,60,0.00,,CLR,0.00,VWS V14.01,2013-08-30 23:20:00,
2013-08-30 19:25:00,71.2,57.6,29.93,South,169,0.0,0.0,62,0.00,,CLR,0.00,VWS V14.01,2013-08-30 23:25:00,
2013-08-30 19:30:00,71.2,57.6,29.93,South,169,0.0,0.0,62,0.00,,CLR,0.00,VWS V14.01,2013-08-30 23:30:00,
2013-08-30 19:35:00,70.9,58.1,29.93,South,169,0.0,0.0,64,0.00,,CLR,0.00,VWS V14.01,2013-08-30 23:35:00,
2013-08-30 19:40:00,70.9,58.1,29.93,South,169,0.0,0.0,64,0.00,,BKN100,0.00,VWS V14.01,2013-08-30 23:40:00,
2013-08-30 19:45:00,70.5,58.6,29.93,South,169,0.0,0.0,66,0.00,,BKN100,0.00,VWS V14.01,2013-08-30 23:45:00,
2013-08-30 19:50:00,70.3,58.5,29.93,South,169,0.0,0.0,66,0.00,,BKN100,0.00,VWS V14.01,2013-08-30 23:50:00,
2013-08-30 19:55:00,70.3,58.5,29.93,South,169,0.0,0.0,66,0.00,,BKN100,0.00,VWS V14.01,2013-08-30 23:55:00,
2013-08-30 20:00:00,70.0,59.0,29.93,South,169,0.0,0.0,68,0.00,,BKN100,0.00,VWS V14.01,2013-08-31 00:00:00,
2013-08-30 20:05:00,70.0,59.0,29.93,South,169,0.0,0.0,68,0.00,,BKN100,0.00,VWS V14.01,2013-08-31 00:05:00,
2013-08-30 20:10:00,69.8,58.8,29.93,South,169,0.0,0.0,68,0.00,,OVC110,0.00,VWS V14.01,2013-08-31 00:10:00,
2013-08-30 20:15:00,69.8,58.8,29.93,South,169,0.0,0.0,68,0.00,,OVC110,0.00,VWS V14.01,2013-08-31 00:15:00,
2013-08-30 20:20:00,69.8,58.8,29.93,South,169,0.0,0.0,68,0.00,,OVC110,0.00,VWS V14.01,2013-08-31 00:20:00,
2013-08-30 20:25:00,68.9,58.7,29.93,South,169,0.0,0.0,70,0.00,,OVC110,0.00,VWS V14.01,2013-08-31 00:25:00,
2013-08-30 20:30:00,68.7,59.0,29.93,South,169,0.0,0.0,71,0.00,,OVC110,0.00,VWS V14.01,2013-08-31 00:30:00,
2013-08-30 20:35:00,68.5,58.8,29.93,South,169,0.0,0.0,71,0.00,,OVC110,0.00,VWS V14.01,2013-08-31 00:35:00,
2013-08-30 20:40:00,68.5,58.8,29.93,South,169,0.0,0.0,71,0.00,,OVC110,0.00,VWS V14.01,2013-08-31 00:40:00,
2013-08-30 20:45:00,68.4,59.0,29.93,South,169,0.0,0.0,72,0.00,,OVC110,0.00,VWS V14.01,2013-08-31 00:45:00,
2013-08-30 20:50:00,68.2,58.8,29.93,South,169,0.0,0.0,72,0.00,,OVC110,0.00,VWS V14.01,2013-08-31 00:50:00,
2013-08-30 20:55:00,67.8,59.2,29.93,South,169,0.0,0.0,74,0.00,,OVC110,0.00,VWS V14.01,2013-08-31 00:55:00,
2013-08-30 21:00:00,67.5,58.9,29.93,South,169,0.0,0.0,74,0.00,,OVC110,0.00,VWS V14.01,2013-08-31 01:00:00,
2013-08-30 21:05:00,67.5,58.9,29.93,South,169,0.0,0.0,74,0.00,,OVC110,0.00,VWS V14.01,2013-08-31 01:05:00,
2013-08-30 21:10:00,67.5,58.9,29.93,South,169,0.0,0.0,74,0.00,,OVC110,0.00,VWS V14.01,2013-08-31 01:10:00,
2013-08-30 21:15:00,67.5,58.9,29.93,South,169,0.0,0.0,74,0.00,,OVC110,0.00,VWS V14.01,2013-08-31 01:15:00,
2013-08-30 21:20:00,66.6,58.4,29.93,South,169,0.0,0.0,75,0.00,,OVC110,0.00,VWS V14.01,2013-08-31 01:20:00,
2013-08-30 21:25:00,66.2,58.4,29.93,South,169,0.0,0.0,76,0.00,,OVC110,0.00,VWS V14.01,2013-08-31 01:25:00,
2013-08-30 21:31:00,66.2,58.4,29.93,South,169,0.0,0.0,76,0.00,,OVC110,0.00,VWS V14.01,2013-08-31 01:31:00,
2013-08-30 21:36:00,65.8,58.4,29.93,South,169,0.0,0.0,77,0.00,,OVC110,0.00,VWS V14.01,2013-08-31 01:36:00,
2013-08-30 21:41:00,65.7,58.6,29.93,South,169,0.0,0.0,78,0.00,,BKN120,0.00,VWS V14.01,2013-08-31 01:41:00,
2013-08-30 21:46:00,65.7,58.6,29.93,South,169,0.0,0.0,78,0.00,,BKN120,0.00,VWS V14.01,2013-08-31 01:46:00,
2013-08-30 21:51:00,65.7,58.6,29.93,South,169,0.0,0.0,78,0.00,,BKN120,0.00,VWS V14.01,2013-08-31 01:51:00,
2013-08-30 21:56:00,65.5,58.8,29.93,South,169,0.0,0.0,79,0.00,,BKN120,0.00,VWS V14.01,2013-08-31 01:56:00,
2013-08-30 22:01:00,65.5,59.2,29.93,South,169,0.0,0.0,80,0.00,,BKN120,0.00,VWS V14.01,2013-08-31 02:01:00,
2013-08-30 22:06:00,65.5,59.2,29.93,South,169,0.0,0.0,80,0.00,,BKN120,0.00,VWS V14.01,2013-08-31 02:06:00,
2013-08-30 22:11:00,65.7,59.3,29.93,South,169,0.0,0.0,80,0.00,,BKN120,0.00,VWS V14.01,2013-08-31 02:11:00,
2013-08-30 22:16:00,65.7,59.7,29.93,South,169,0.0,0.0,81,0.00,,BKN120,0.00,VWS V14.01,2013-08-31 02:16:00,
2013-08-30 22:21:00,65.8,59.8,29.93,South,169,0.0,0.0,81,0.00,,BKN120,0.00,VWS V14.01,2013-08-31 02:21:00,
2013-08-30 22:26:00,66.0,60.4,29.93,South,169,0.0,0.0,82,0.00,,BKN120,0.00,VWS V14.01,2013-08-31 02:26:00,
2013-08-30 22:31:00,66.0,60.4,29.90,South,169,0.0,0.0,82,0.00,,BKN120,0.00,VWS V14.01,2013-08-31 02:31:00,
2013-08-30 22:36:00,66.0,60.4,29.90,South,169,0.0,0.0,82,0.00,,BKN120,0.00,VWS V14.01,2013-08-31 02:36:00,
2013-08-30 22:41:00,66.0,60.4,29.90,South,169,0.0,0.0,82,0.00,,FEW110,0.00,VWS V14.01,2013-08-31 02:41:00,
2013-08-30 22:46:00,66.0,60.4,29.90,South,169,0.0,0.0,82,0.00,,FEW110,0.00,VWS V14.01,2013-08-31 02:46:00,
2013-08-30 22:51:00,66.2,60.5,29.90,South,169,0.0,0.0,82,0.00,,FEW110,0.00,VWS V14.01,2013-08-31 02:51:00,
2013-08-30 22:56:00,66.2,60.5,29.90,South,169,0.0,0.0,82,0.00,,FEW110,0.00,VWS V14.01,2013-08-31 02:56:00,
2013-08-30 23:01:00,66.2,60.9,29.90,South,169,0.0,0.0,83,0.00,,FEW110,0.00,VWS V14.01,2013-08-31 03:01:00,
2013-08-30 23:06:00,66.2,60.9,29.90,South,169,0.0,0.0,83,0.00,,FEW110,0.00,VWS V14.01,2013-08-31 03:06:00,
2013-08-30 23:11:00,66.2,60.9,29.90,South,169,0.0,0.0,83,0.00,,FEW110,0.00,VWS V14.01,2013-08-31 03:11:00,
2013-08-30 23:16:00,66.2,60.9,29.90,South,169,0.0,0.0,83,0.00,,FEW110,0.00,VWS V14.01,2013-08-31 03:16:00,
2013-08-30 23:21:00,66.4,61.4,29.90,South,169,0.0,0.0,84,0.00,,FEW110,0.00,VWS V14.01,2013-08-31 03:21:00,
2013-08-30 23:26:00,66.6,61.6,29.90,South,169,0.0,0.0,84,0.00,,FEW110,0.00,VWS V14.01,2013-08-31 03:26:00,
2013-08-30 23:31:00,66.6,61.6,29.90,South,169,0.0,0.0,84,0.00,,FEW110,0.00,VWS V14.01,2013-08-31 03:31:00,
2013-08-30 23:36:00,66.6,61.9,29.90,South,169,0.0,0.0,85,0.00,,FEW110,0.00,VWS V14.01,2013-08-31 03:36:00,
2013-08-30 23:41:00,66.6,61.9,29.90,South,169,0.0,0.0,85,0.00,,OVC120,0.00,VWS V14.01,2013-08-31 03:41:00,
2013-08-30 23:46:00,66.7,62.1,29.90,South,169,0.0,0.0,85,0.00,,OVC120,0.00,VWS V14.01,2013-08-31 03:46:00,
2013-08-30 23:51:00,66.7,62.1,29.90,South,169,0.0,0.0,85,0.00,,OVC120,0.00,VWS V14.01,2013-08-31 03:51:00,
2013-08-30 23:56:00,66.7,62.1,29.90,South,169,0.0,0.0,85,0.00,,OVC120,0.00,VWS V14.01,2013-08-31 03:56:00,